Weather History for White Plains, NY

Change the Weather History Date:

Tuesday, February 21, 2012

  Actual Average Record
Temperature  
Mean Temperature 34 °F -  
Max Temperature 44 °F 39 °F 60 °F (2002)
Min Temperature 25 °F 24 °F 6 °F (1978)
Degree Days  
Heating Degree Days 30    
Moisture  
Dew Point 25 °F    
Average Humidity 63    
Maximum Humidity 82    
Minimum Humidity 47    
Precipitation  
Precipitation 0.00 in - - ()
Sea Level Pressure  
Sea Level Pressure 30.16 in    
Wind  
Wind Speed 5 mph (SSE)    
Max Wind Speed 16 mph    
Max Gust Speed 23 mph    
Visibility 10 miles    
Events Rain    
Averages and records for this station are not official NWS values.
T = Trace of Precipitation, MM = Missing Value Source: NWS Daily Summary

Daily Weather History Graph

Daily Weather History Graph

Search for Another Location

Airport:

Trip Planner

Search our weather history database for the weather conditions in past years. The results will help you decide how hot, cold, wet, or windy it might be!

Date:

Astronomy

Feb. 21, 2012 Rise Set
Actual Time 6:41 AM EST 5:35 PM EST
Civil Twilight 6:13 AM EST 6:03 PM EST
Nautical Twilight 5:41 AM EST 6:35 PM EST
Astronomical Twilight 5:10 AM EST 7:07 PM EST
Moon 6:08 AM EST (2/21) 5:40 PM EST (2/21)
Length of Visible Light 11h 49m
Length of Day
10h 54m
Waning Crescent, 0% of the Moon is Illuminated
Feb 21
Waning Crescent
Feb 21
New
Feb 29
First Quarter
Mar 8
Full
Mar 14
Last Quarter

Hourly Weather History & Observations

Time (EST) Temp. Windchill Dew Point Humidity Pressure Visibility Wind Dir Wind Speed Gust Speed Precip Events Conditions
12:56 AM 28.0 °F - 17.1 °F 63% 30.35 in 10.0 mi Calm Calm - N/A   Clear
1:56 AM 27.0 °F 20.5 °F 17.1 °F 66% 30.36 in 10.0 mi NW 5.8 mph - N/A   Clear
2:56 AM 28.0 °F 24.2 °F 14.0 °F 56% 30.34 in 10.0 mi NE 3.5 mph - N/A   Clear
3:56 AM 28.9 °F 23.9 °F 14.0 °F 54% 30.33 in 10.0 mi NNE 4.6 mph - N/A   Clear
4:56 AM 26.1 °F 20.5 °F 15.1 °F 63% 30.35 in 10.0 mi WNW 4.6 mph - N/A   Clear
5:56 AM 25.0 °F - 15.1 °F 66% 30.35 in 10.0 mi Calm Calm - N/A   Clear
6:56 AM 25.0 °F - 16.0 °F 69% 30.32 in 10.0 mi Calm Calm - N/A   Clear
7:56 AM 30.0 °F - 17.1 °F 59% 30.33 in 10.0 mi Calm Calm - N/A   Clear
8:56 AM 33.8 °F - 19.4 °F 56% 30.31 in 10.0 mi Calm Calm - N/A   Clear
9:56 AM 35.6 °F 29.2 °F 21.2 °F 56% 30.28 in 10.0 mi SSE 8.1 mph - N/A   Clear
10:56 AM 39.9 °F 32.9 °F 23.0 °F 51% 30.30 in 10.0 mi SSE 11.5 mph 17.3 mph N/A   Clear
11:56 AM 43.0 °F 36.4 °F 24.1 °F 47% 30.25 in 10.0 mi SSE 12.7 mph 18.4 mph N/A   Partly Cloudy
12:56 PM 43.0 °F 35.4 °F 26.1 °F 51% 30.20 in 10.0 mi South 16.1 mph 19.6 mph N/A   Mostly Cloudy
1:56 PM 42.1 °F 35.7 °F 25.0 °F 51% 30.17 in 10.0 mi South 11.5 mph 21.9 mph N/A   Mostly Cloudy
2:56 PM 42.8 °F 35.1 °F 26.6 °F 53% 30.08 in 10.0 mi SSE 16.1 mph 23.0 mph N/A   Mostly Cloudy
3:56 PM 42.1 °F 34.2 °F 28.9 °F 60% 30.03 in 10.0 mi SSE 16.1 mph 20.7 mph N/A   Mostly Cloudy
4:56 PM 42.1 °F 36.1 °F 30.9 °F 65% 30.02 in 10.0 mi SSE 10.4 mph 21.9 mph N/A   Overcast
5:56 PM 42.1 °F 36.1 °F 33.1 °F 70% 30.00 in 10.0 mi SSE 10.4 mph 18.4 mph 0.00 in   Mostly Cloudy
6:56 PM 43.0 °F 39.5 °F 36.0 °F 76% 29.99 in 10.0 mi Variable 5.8 mph - 0.00 in Rain Light Rain
7:56 PM 43.0 °F 38.2 °F 36.0 °F 76% 29.96 in 10.0 mi South 8.1 mph - 0.00 in   Mostly Cloudy
8:56 PM 41.0 °F - 36.0 °F 82% 29.94 in 10.0 mi Calm Calm - N/A   Mostly Cloudy
9:56 PM 42.1 °F - 36.0 °F 79% 29.91 in 10.0 mi Calm Calm - N/A   Clear
10:56 PM 44.1 °F 42.5 °F 36.0 °F 73% 29.89 in 10.0 mi Variable 3.5 mph - N/A   Clear
11:56 PM 44.1 °F 40.8 °F 35.1 °F 71% 29.85 in 10.0 mi Variable 5.8 mph - N/A   Mostly Cloudy